Home > Weather > Newport > Past weeks

Flag for United Kingdom Past Weather in Newport, Wales, United Kingdom — Yesterday and Last 2 Weeks

Now
66 °F

Broken clouds.


Feels Like: 66 °F
Forecast: 52 / 69 °F
Wind: 16 mph from West

Location: Bristol / Lulsgate

Current Time: Jul 29, 2016 at 5:06:48 PM

Latest Report: Jul 29, 2016 at 4:20 PM


Visibility: N/A

Pressure: 29.89 "Hg

Humidity: 73%

Dew Point: 57 °F

Location of NewportLocation

Past Weather in Newport — Graph

°F

Newport Temperature Yesterday

Maximum temperature yesterday: 66 °F (at 3:20 PM)
Minimum temperature yesterday: 52 °F (at 1:50 AM)
Average temperature yesterday: 59 °F

High & Low Weather Summary for the Past Weeks

 TemperatureHumidityPressure
High86 °F (Jul 19, 12:50 PM)100% (Jul 15, 4:20 PM)30.36 "Hg (Jul 15, 4:20 PM)
Low52 °F (Jul 15, 2:50 AM)46% (Jul 19, 2:20 PM)29.71 "Hg (Jul 20, 3:20 AM)
Average63 °F86%30.10 "Hg
* Reported Jul 14 3:20 PM — Jul 29 3:50 PM, Newport, Weather by CustomWeather, © 2016

Note: Actual official high and low records may vary slightly from our data, if they occured in-between our weather recording intervals... More about our weather records

Advertising

Newport Weather History for the Previous 24 Hours

Scroll right to see more
 ConditionsComfort  
Time TempWeatherWind HumidityBarometerVisibility
3:50 PM
Fri, Jul 29
64 °FOvercast.15 mph83%29.89 "HgN/A
3:20 PM64 °FPartly sunny.16 mph78%29.89 "HgN/A
2:50 PM64 °FScattered clouds.18 mph78%29.89 "HgN/A
2:20 PM66 °FPartly sunny.15 mph78%29.89 "HgN/A
1:50 PM64 °FScattered clouds.16 mph78%29.89 "HgN/A
1:20 PM64 °FScattered clouds.15 mph78%29.89 "HgN/A
12:50 PM64 °FScattered clouds.14 mph83%29.89 "HgN/A
12:20 PM64 °FScattered showers. Scattered clouds.15 mph83%29.89 "HgN/A
11:50 AM64 °FScattered showers. Scattered clouds.14 mph83%29.89 "HgN/A
11:20 AM63 °FScattered clouds.13 mph94%29.89 "HgN/A
10:50 AM61 °FScattered showers. Broken clouds.12 mph94%29.89 "HgN/A
10:20 AM61 °FRain. Partly sunny.13 mph94%29.89 "Hg3 mi
9:50 AM59 °FPartly sunny.15 mph100%29.86 "Hg3 mi
9:20 AM59 °FDrizzle. Fog.13 mph100%29.86 "Hg1 mi
8:50 AM59 °FDrizzle. Fog.9 mph100%29.86 "Hg1 mi
8:20 AM59 °FDrizzle. Fog.10 mph100%29.86 "Hg1 mi
7:50 AM59 °FFog.13 mph100%29.86 "Hg1 mi
7:20 AM59 °FLow clouds.13 mph100%29.86 "Hg4 mi
6:50 AM59 °FFog.10 mph100%29.86 "Hg2 mi
6:20 AM59 °FFog.13 mph100%29.86 "Hg1 mi
5:50 AM59 °FFog.10 mph100%29.86 "Hg2 mi
5:20 AM59 °FDrizzle. Fog.13 mph100%29.86 "Hg1 mi
4:50 AM59 °FDrizzle. Fog.10 mph100%29.86 "Hg1 mi
4:20 AM59 °FFog.14 mph100%29.86 "Hg3 mi
3:50 AM59 °FRain. Low clouds.12 mph100%29.86 "Hg2 mi
3:20 AM59 °FMostly cloudy.14 mph100%29.86 "Hg5 mi
2:50 AM59 °FFog.9 mph94%29.86 "Hg0 mi
2:20 AM59 °FFog.9 mph94%29.86 "Hg0 mi
1:50 AM57 °FPartly cloudy.7 mph100%29.86 "HgN/A
1:20 AM57 °FMostly cloudy.8 mph100%29.89 "HgN/A
12:50 AM57 °FRain. Mostly cloudy.12 mph100%29.89 "Hg2 mi
12:20 AM59 °FPartly cloudy.8 mph100%29.89 "Hg1 mi
11:50 PM
Thu, Jul 28
59 °FFog.6 mph100%29.89 "Hg3 mi
11:20 PM59 °FLight rain. Overcast.7 mph94%29.89 "HgN/A
10:50 PM59 °FPartly cloudy.8 mph94%29.89 "HgN/A
10:20 PM61 °FOvercast.13 mph88%29.89 "HgN/A
9:50 PM59 °FPartly sunny.12 mph94%29.89 "HgN/A
9:20 PM59 °FPassing clouds.9 mph94%29.89 "HgN/A
8:50 PM61 °FBroken clouds.13 mph94%29.89 "HgN/A
8:20 PM61 °FCloudy.14 mph94%29.89 "HgN/A
7:50 PM63 °FMostly cloudy.15 mph88%29.89 "HgN/A
7:20 PM63 °FLow clouds.15 mph88%29.89 "HgN/A
6:50 PM64 °FOvercast.14 mph83%29.89 "HgN/A
6:20 PM64 °FCloudy.15 mph83%29.89 "HgN/A
5:50 PM64 °FPartly sunny.16 mph88%29.89 "HgN/A
5:20 PM64 °FPartly sunny.20 mph88%29.89 "HgN/A
Weather by CustomWeather, © 2016

See weather overviewHow to use our weather pages